2023/02/12 00:00:00,88.3, 1.1
2023/02/12 00:10:00,88.3, 1.0
2023/02/12 00:20:00,88.2, 1.1
2023/02/12 00:30:00,88.2, 1.1
2023/02/12 00:40:00,88.1, 0.6
2023/02/12 00:50:00,88.0, 0.8
2023/02/12 01:00:00,88.0, 1.0
2023/02/12 01:10:00,87.9, 1.1
2023/02/12 01:20:00,87.9, 0.5
2023/02/12 01:30:00,87.9, 0.5
2023/02/12 01:40:00,87.8, 0.7
2023/02/12 01:50:00,87.8, 1.1
2023/02/12 02:00:00,87.8, 1.3
2023/02/12 02:10:00,87.7, 0.9
2023/02/12 02:20:00,87.7, 1.1
2023/02/12 02:30:00,87.7, 1.0
2023/02/12 02:40:00,87.7, 1.1
2023/02/12 02:50:00,87.6, 0.7
2023/02/12 03:00:00,87.6, 0.5
2023/02/12 03:10:00,87.6, 0.4
2023/02/12 03:20:00,87.6, 0.5
2023/02/12 03:30:00,87.5, 0.6
2023/02/12 03:40:00,87.5, 0.8
2023/02/12 03:50:00,87.5, 0.6
2023/02/12 04:00:00,87.4, 0.8
2023/02/12 04:10:00,87.4, 0.7
2023/02/12 04:20:00,87.3, 1.0
2023/02/12 04:30:00,87.3, 0.8
2023/02/12 04:40:00,87.3, 1.2
2023/02/12 04:50:00,87.2, 1.0
2023/02/12 05:00:00,87.2, 1.7
2023/02/12 05:10:00,87.2, 1.2
2023/02/12 05:20:00,87.2, 1.7
2023/02/12 05:30:00,87.1, 1.2
2023/02/12 05:40:00,87.0, 1.2
2023/02/12 05:50:00,87.1, 1.5
2023/02/12 06:00:00,87.0, 1.6
2023/02/12 06:10:00,87.0, 1.1
2023/02/12 06:20:00,87.0, 1.6
2023/02/12 06:30:00,87.1, 1.6
2023/02/12 06:40:00,87.0, 1.6
2023/02/12 06:50:00,87.0, 2.0
2023/02/12 07:00:00,87.1, 1.5
2023/02/12 07:10:00,87.0, 1.9
2023/02/12 07:20:00,87.1, 2.2
2023/02/12 07:30:00,87.1, 2.4
2023/02/12 07:40:00,87.1, 2.3
2023/02/12 07:50:00,87.0, 1.8
2023/02/12 08:00:00,87.1, 2.6
2023/02/12 08:10:00,87.0, 2.5
2023/02/12 08:20:00,87.0, 2.5
2023/02/12 08:30:00,86.9, 2.6
2023/02/12 08:40:00,87.0, 2.8
2023/02/12 08:50:00,87.0, 2.9
2023/02/12 09:00:00,87.0, 3.9
2023/02/12 09:10:00,87.0, 7.7
2023/02/12 09:20:00,87.1,10.1
2023/02/12 09:30:00,87.5,10.4
2023/02/12 09:40:00,87.6, 9.9
2023/02/12 09:50:00,87.5,10.9
2023/02/12 10:00:00,87.3,10.3
2023/02/12 10:10:00,87.3,12.4
2023/02/12 10:20:00,87.2,11.8
2023/02/12 10:30:00,87.0,12.1
2023/02/12 10:40:00,111.7,12.4
2023/02/12 10:50:00,119.8,13.2
2023/02/12 11:00:00,87.5,13.6
2023/02/12 11:10:00,87.4,13.1
2023/02/12 11:20:00,87.1,12.7
2023/02/12 11:30:00,86.9,14.1
2023/02/12 11:40:00,86.7,14.4
2023/02/12 11:50:00,86.7,13.8
2023/02/12 12:00:00,86.6,14.5
2023/02/12 12:10:00,86.5,13.1
2023/02/12 12:20:00,86.1,14.7
2023/02/12 12:30:00,85.8,13.8
2023/02/12 12:40:00,85.8,14.5
2023/02/12 12:50:00,85.8,16.5
2023/02/12 13:00:00,85.8,17.6
2023/02/12 13:10:00,85.8,14.5
2023/02/12 13:20:00,85.8,14.5
2023/02/12 13:30:00,85.7,16.3
2023/02/12 13:40:00,85.5,14.8
2023/02/12 13:50:00,85.2,15.4
2023/02/12 14:00:00,85.2,15.6
2023/02/12 14:10:00, 0.0,17.2
2023/02/12 14:20:00,84.7,18.2
2023/02/12 14:30:00,84.9,17.3
2023/02/12 14:40:00,84.7,18.7
2023/02/12 14:50:00,84.5,17.6
2023/02/12 15:00:00,84.4,19.4
2023/02/12 15:10:00,84.2,15.8
2023/02/12 15:20:00,83.8,16.4
2023/02/12 15:30:00,83.5,16.8
2023/02/12 15:40:00,83.7,17.2
2023/02/12 15:50:00,83.6,16.3
2023/02/12 16:00:00,83.6,14.1
2023/02/12 16:10:00,83.4,11.8
2023/02/12 16:20:00,83.4,10.8
2023/02/12 16:30:00,83.2, 9.0
2023/02/12 16:40:00,83.5, 7.8
2023/02/12 16:50:00,83.8, 6.0
2023/02/12 17:00:00,83.8, 4.9
2023/02/12 17:10:00,84.0, 4.1
2023/02/12 17:20:00,83.9, 3.6
2023/02/12 17:30:00,83.6, 3.8
2023/02/12 17:40:00,83.6, 3.4
2023/02/12 17:50:00,83.6, 3.3
2023/02/12 18:00:00,83.5, 2.7
2023/02/12 18:10:00,83.4, 2.8
2023/02/12 18:20:00,83.4, 2.7
2023/02/12 18:30:00,83.4, 2.8
2023/02/12 18:40:00,83.4, 2.9
2023/02/12 18:50:00,83.5, 2.9
2023/02/12 19:00:00,83.6, 3.6
2023/02/12 19:10:00,83.7, 3.5
2023/02/12 19:20:00,83.5, 3.2
2023/02/12 19:30:00,83.4, 2.9
2023/02/12 19:40:00,83.3, 2.9
2023/02/12 19:50:00,83.3, 2.5
2023/02/12 20:00:00,83.3, 3.1
2023/02/12 20:10:00,83.3, 2.9
2023/02/12 20:20:00,83.3, 2.8
2023/02/12 20:30:00,83.3, 3.2
2023/02/12 20:40:00,83.3, 3.1
2023/02/12 20:50:00,83.3, 2.9
2023/02/12 21:00:00,83.3, 2.9
2023/02/12 21:10:00,83.1, 3.0
2023/02/12 21:20:00,83.1, 2.9
2023/02/12 21:30:00,82.9, 2.8
2023/02/12 21:40:00,82.7, 2.7
2023/02/12 21:50:00,82.6, 2.8
2023/02/12 22:00:00,82.5, 2.5
2023/02/12 22:10:00,82.4, 2.8
2023/02/12 22:20:00,82.4, 3.0
2023/02/12 22:30:00,82.4, 3.4
2023/02/12 22:40:00,82.3, 3.5
2023/02/12 22:50:00,82.2, 3.2
2023/02/12 23:00:00,82.2, 3.4
2023/02/12 23:10:00,82.2, 4.1
2023/02/12 23:20:00,82.1, 4.3
2023/02/12 23:30:00,82.1, 4.2
2023/02/12 23:40:00,82.2, 3.1
2023/02/12 23:50:00,82.2, 3.1
